Regional Weather Roundup
Issued by NWS

Home | Current Version | Previous Version | Text Only | Print | Product List | Glossary On
Versions: 1 2 3 4 5 6 7 8 9 10 11 12 13 14 15 16 17 18 19 20 21 22 23 24 25 26 27 28 29 30 31 32 33 34 35 36 37 38 39 40 41 42 43 44 45 46 47 48 49 50
000
ASUS42 KFFC 202303
RWRGA
WEATHER ROUNDUP FOR GEORGIA
NATIONAL WEATHER SERVICE PEACHTREE CITY GA
700 PM EDT WED AUG 20 2014

NOTE: "FAIR" INDICATES FEW OR NO CLOUDS BELOW 12,000 FEET WITH NO
SIGNIFICANT WEATHER AND/OR OBSTRUCTIONS TO VISIBILITY.

* = USE WITH CAUTION. THE STATIONS MARKED WITH AN ASTERISK MAY NOT
REPORT WEATHER SUCH AS PRECIPITATION, FOG, OR THUNDER AND ARE NOT
QUALITY CONTROLLED BY NWS.

THE REMARK "TC" DENOTES TEMPERATURE READING IN DEGREES CELSIUS.

GAZ001>058-210000-
NORTH GEORGIA

CITY           SKY/WX    TMP DP  RH WIND       PRES   REMARKS
ATLANTA        CLOUDY    75  70  84 SW5       30.04F
ATHENS         CLOUDY    81  68  64 VRB5      30.03S
CHAMBLEE       CLOUDY    79  69  71 W3        30.05S
PEACHTREE CITY LGT RAIN  72  69  90 CALM      30.04F
ROME           PTSUNNY   79  72  79 E5        30.01S
WEST ATLANTA   CLOUDY    75  69  81 CALM      30.04F
GAINESVILLE    CLOUDY    80  67  64 NW12      30.09R
CARTERSVILLE   CLOUDY    78  69  73 NE3       30.04S


CITY           SKY/WX    TMP DP  RH WIND       PRES   REMARKS
DALTON*          N/A     70  70 100 NE13G26   30.09R THUNDER
LAWRENCEVILLE* SUNNY     81  64  57 W7        30.04F
MARIETTA       PTSUNNY   77  69  77 SW6       30.06F
KENNESAW*      MOSUNNY   75  66  73 SW6       30.05F
$$

GAZ059>098-102>109-210000-
CENTRAL GEORGIA

CITY           SKY/WX    TMP DP  RH WIND       PRES   REMARKS
AUGUSTA-BUSH   CLOUDY    83  71  67 W8        29.98R
AUGUSTA-DANIEL CLOUDY    82  67  60 W7        30.01R
COLUMBUS       PTSUNNY   84  69  60 SE13      30.04R THUNDER
MACON          CLOUDY    74  73  97 N5        30.05S
ROBINS AFB     LGT RAIN  75  73  91 E2        30.04R


CITY           SKY/WX    TMP DP  RH WIND       PRES   REMARKS
LAGRANGE*      PTSUNNY   83  72  67 NE8       30.05S THUNDER
SYLVANIA*      SUNNY     89  76  67 CALM      29.99S HX 100
MILLEDGEVILLE* CLOUDY    63  59  88 CALM      30.04R
$$

GAZ099>101-110>166-210000-
SOUTH GEORGIA

CITY           SKY/WX    TMP DP  RH WIND       PRES   REMARKS
SAVANNAH       MOSUNNY   93  70  46 W5        29.98S HX  99
VALDOSTA       SUNNY     92  68  45 CALM      30.02S HX  96
ALMA           SUNNY     93  70  46 W7        30.02R HX  99
ST SIMONS      SUNNY     89  77  67 VRB5      29.99S HX 101
FT STEWART     SUNNY     94  71  48 SW8       29.98S HX 100
ALBANY         MOSUNNY   93  70  46 W6        30.04R HX  99
HUNTER AFB     SUNNY     92  73  53 SW3       29.96S HX 101
MOODY AFB      SUNNY     92  72  50 W6        30.02S HX 100
BRUNSWICK      SUNNY     91  70  49 CALM      30.00S HX  97


CITY           SKY/WX    TMP DP  RH WIND       PRES   REMARKS
BAINBRIDGE*    PTSUNNY   90  77  66 SW8       30.03S HX 102
MOULTRIE*      SUNNY     91  70  49 W5        30.04R HX  97
VIDALIA*         N/A     82  70  65 NW13G24   30.03R THUNDER
WAYCROSS*      SUNNY     97  74  48 W7        30.01R HX 108
DOUGLAS*       SUNNY     95  70  43 W5        30.04R HX 101
$$



USA.gov is the U.S. government's official web portal to all federal, state and local government web resources and services.